Date String (YYYY-MM-DD hh:mm:ss) UTC,Instrument flags,Ambient pressure (hPa),Sample flow (lpm),Bypass flow (lpm),Sample temperature (°C),Ambient temperature (°C),ASC tube jacket temperature (°C),LED temperature (°C),Box temperature (°C),Sample RH (%),Span deviation,Mass concentration (μg/m³),Mass concentration (μg/m³),Mass concentration (μg/m³)
DateTimeUTC,F1_M11,P_M11,Q1_M11,Q2_M11,T1_M11,T2_M11,T3_M11,T4_M11,T5_M11,U1_M11,ZSPAN_M11,X0_M11,X2_M11,X1_M11
2022-10-19 03:00:00,,0833.0,4.98,0.00,29.9,28.3,00.0,38.8,31.6,10.5,0000.0,0008.48,0003.69,0003.08
2022-10-19 03:01:00,,0833.1,5.01,0.00,29.9,28.3,00.0,38.8,31.7,10.5,0000.0,0008.34,0003.65,0003.07
2022-10-19 03:02:00,,0833.1,5.00,0.00,29.9,28.3,00.0,38.8,31.6,10.6,0000.0,0009.27,0003.68,0003.06
2022-10-19 03:03:00,,0833.0,4.99,0.00,29.9,28.3,00.0,38.8,31.6,10.6,0000.0,0010.26,0003.70,0003.06
2022-10-19 03:04:00,,0833.0,5.00,0.00,29.9,28.3,00.0,38.8,31.7,10.5,0000.0,0009.96,0003.68,0003.04
2022-10-19 03:05:00,,0833.0,5.01,0.00,29.9,28.3,00.0,38.8,31.7,10.5,0000.0,0009.49,0003.66,0003.03
2022-10-19 03:06:00,,0833.1,4.99,0.00,29.9,28.3,00.0,38.8,31.6,10.5,0000.0,0009.41,0003.65,0003.02
2022-10-19 03:07:00,,0833.0,5.01,0.00,29.9,28.3,00.0,38.8,31.6,10.5,0000.0,0009.30,0003.66,0003.04
2022-10-19 03:08:00,,0833.0,5.00,0.00,29.9,28.3,00.0,38.8,31.6,10.5,0000.0,0009.64,0003.65,0003.03
2022-10-19 03:09:00,,0833.0,5.01,0.00,29.9,28.3,00.0,38.8,31.6,10.5,0000.0,0009.82,0003.64,0003.01
2022-10-19 03:10:00,,0833.0,5.01,0.00,29.9,28.3,00.0,38.8,31.6,10.5,0000.0,0009.70,0003.60,0003.01
2022-10-19 03:11:00,,0833.1,4.99,0.00,29.9,28.3,00.0,38.8,31.6,10.5,0000.0,0010.00,0003.65,0003.00
2022-10-19 03:12:00,,0833.1,5.01,0.00,29.9,28.2,00.0,38.8,31.6,10.6,0000.0,0010.35,0003.71,0003.01
2022-10-19 03:13:00,,0833.1,4.99,0.00,29.9,28.2,00.0,38.8,31.6,10.6,0000.0,0009.65,0003.69,0003.01
2022-10-19 03:14:00,,0833.1,5.01,0.00,29.9,28.2,00.0,38.7,31.6,10.6,0000.0,0008.81,0003.68,0003.00
2022-10-19 03:15:00,,0833.2,5.01,0.00,29.9,28.2,00.0,38.7,31.6,10.5,0000.0,0008.38,0003.69,0003.01
2022-10-19 03:16:00,,0833.2,5.00,0.00,29.8,28.2,00.0,38.7,31.6,10.6,0000.0,0008.33,0003.70,0003.01
2022-10-19 03:17:00,,0833.2,5.01,0.00,29.8,28.2,00.0,38.7,31.6,10.6,0000.0,0008.49,0003.70,0003.03
2022-10-19 03:18:00,,0833.2,4.98,0.00,29.8,28.2,00.0,38.7,31.6,10.6,0000.0,0009.42,0003.70,0003.02
2022-10-19 03:19:00,,0833.2,5.01,0.00,29.8,28.2,00.0,38.7,31.6,10.6,0000.0,0009.29,0003.70,0003.03
2022-10-19 03:20:00,,0833.2,4.98,0.00,29.8,28.2,00.0,38.7,31.6,10.6,0000.0,0009.08,0003.71,0003.04
2022-10-19 03:21:00,,0833.2,5.01,0.00,29.8,28.2,00.0,38.7,31.6,10.6,0000.0,0009.11,0003.72,0003.05
2022-10-19 03:22:00,,0833.2,5.01,0.00,29.8,28.2,00.0,38.7,31.5,10.6,0000.0,0008.93,0003.70,0003.06
2022-10-19 03:23:00,,0833.2,5.00,0.00,29.8,28.1,00.0,38.7,31.5,10.6,0000.0,0008.74,0003.64,0003.05
2022-10-19 03:24:00,,0833.2,5.00,0.00,29.8,28.1,00.0,38.7,31.4,10.6,0000.0,0009.24,0003.65,0003.05
2022-10-19 03:25:00,,0833.3,5.01,0.00,29.8,28.1,00.0,38.7,31.5,10.6,0000.0,0009.15,0003.62,0003.06
2022-10-19 03:26:00,,0833.3,4.98,0.00,29.8,28.2,00.0,38.7,31.5,10.6,0000.0,0009.12,0003.58,0003.05
2022-10-19 03:27:00,,0833.2,5.01,0.00,29.8,28.2,00.0,38.7,31.5,10.6,0000.0,0009.35,0003.58,0003.05
2022-10-19 03:28:00,,0833.3,5.01,0.00,29.8,28.1,00.0,38.7,31.5,10.6,0000.0,0009.90,0003.60,0003.04
2022-10-19 03:29:00,,0833.3,4.99,0.00,29.8,28.2,00.0,38.7,31.5,10.6,0000.0,0009.01,0003.61,0003.04
2022-10-19 03:30:00,,0833.3,5.00,0.00,29.8,28.2,00.0,38.6,31.5,10.6,0000.0,0008.93,0003.62,0003.03
2022-10-19 03:31:00,,0833.3,4.99,0.00,29.8,28.2,00.0,38.6,31.5,10.6,0000.0,0008.94,0003.63,0003.03
2022-10-19 03:32:00,,0833.2,5.01,0.00,29.8,28.1,00.0,38.6,31.5,10.6,0000.0,0008.95,0003.60,0003.02
2022-10-19 03:33:00,,0833.3,5.00,0.00,29.8,28.1,00.0,38.6,31.5,10.6,0000.0,0008.83,0003.58,0003.01
2022-10-19 03:34:00,,0833.3,5.01,0.00,29.7,28.1,00.0,38.6,31.5,10.6,0000.0,0009.20,0003.57,0003.01
2022-10-19 03:35:00,,0833.3,5.01,0.00,29.7,28.1,00.0,38.6,31.4,10.6,0000.0,0009.25,0003.57,0003.01
2022-10-19 03:36:00,,0833.3,4.99,0.00,29.7,28.1,00.0,38.6,31.4,10.6,0000.0,0009.48,0003.59,0003.00
2022-10-19 03:37:00,,0833.4,5.01,0.00,29.7,28.0,00.0,38.6,31.4,10.7,0000.0,0009.41,0003.60,0003.01
2022-10-19 03:38:00,,0833.4,4.99,0.00,29.7,28.1,00.0,38.6,31.4,10.7,0000.0,0009.35,0003.59,0003.01
2022-10-19 03:39:00,,0833.4,5.01,0.00,29.7,28.0,00.0,38.6,31.4,10.6,0000.0,0009.87,0003.59,0003.00
2022-10-19 03:40:00,,0833.4,5.01,0.00,29.7,28.0,00.0,38.6,31.4,10.6,0000.0,0010.47,0003.58,0002.98
2022-10-19 03:41:00,,0833.4,4.99,0.00,29.7,28.0,00.0,38.6,31.4,10.7,0000.0,0010.95,0003.59,0002.98
2022-10-19 03:42:00,,0833.3,5.00,0.00,29.7,28.0,00.0,38.6,31.4,10.6,0000.0,0011.65,0003.62,0003.00
2022-10-19 03:43:00,,0833.3,5.00,0.00,29.7,28.1,00.0,38.6,31.5,10.6,0000.0,0012.50,0003.68,0003.00
2022-10-19 03:44:00,,0833.3,5.00,0.00,29.7,28.0,00.0,38.6,31.4,10.7,0000.0,0012.71,0003.73,0003.00
2022-10-19 03:45:00,,0833.2,5.00,0.00,29.7,28.0,00.0,38.6,31.5,10.7,0000.0,0012.36,0003.75,0003.00
2022-10-19 03:46:00,,0833.3,5.00,0.00,29.7,28.0,00.0,38.5,31.4,10.7,0000.0,0011.95,0003.78,0003.01
2022-10-19 03:47:00,,0833.3,5.01,0.00,29.7,28.0,00.0,38.6,31.3,10.8,0000.0,0012.39,0003.82,0003.00
2022-10-19 03:48:00,,0833.4,4.99,0.00,29.7,28.0,00.0,38.5,31.3,10.8,0000.0,0012.36,0003.81,0002.99
2022-10-19 03:49:00,,0833.3,5.00,0.00,29.6,28.0,00.0,38.5,31.4,10.7,0000.0,0012.36,0003.79,0002.97
2022-10-19 03:50:00,,0833.4,5.01,0.00,29.6,28.0,00.0,38.5,31.3,10.7,0000.0,0011.80,0003.75,0002.97
2022-10-19 03:51:00,,0833.4,5.00,0.00,29.6,27.9,00.0,38.5,31.3,10.8,0000.0,0011.15,0003.72,0002.96
2022-10-19 03:52:00,,0833.4,5.00,0.00,29.6,27.9,00.0,38.5,31.3,10.8,0000.0,0011.21,0003.73,0002.97
2022-10-19 03:53:00,,0833.4,5.00,0.00,29.6,27.9,00.0,38.5,31.3,10.8,0000.0,0010.93,0003.71,0002.97
2022-10-19 03:54:00,,0833.3,5.01,0.00,29.6,27.9,00.0,38.5,31.3,10.8,0000.0,0011.16,0003.67,0002.97
2022-10-19 03:55:00,,0833.3,4.98,0.00,29.6,27.9,00.0,38.5,31.3,10.8,0000.0,0011.06,0003.63,0002.96
2022-10-19 03:56:00,,0833.3,5.01,0.00,29.6,27.9,00.0,38.5,31.3,10.8,0000.0,0011.44,0003.63,0002.96
2022-10-19 03:57:00,,0833.3,5.00,0.00,29.6,27.9,00.0,38.5,31.3,10.8,0000.0,0011.63,0003.58,0002.96
2022-10-19 03:58:00,,0833.3,5.01,0.00,29.6,27.9,00.0,38.5,31.3,10.8,0000.0,0011.34,0003.60,0002.98
2022-10-19 03:59:00,,0833.3,5.00,0.00,29.6,27.9,00.0,38.5,31.2,10.8,0000.0,0011.51,0003.65,0002.98
